Hourly Data Report for February 19, 2018

MIRAMICHI RCS
NEW BRUNSWICK

47°00'34.000" N
65°27'54.000" W
33.00 m
8100989
71744
ACQ

Download Data

Hourly Data (February 2018)
Hourly Data Report for February 19, 2018
TIME
LST
Temp Definition
°C
Dew Point Definition
°C
Rel Hum Definition
%
Precip. Amount Definition
mm

Wind Dir Definition
10's deg

Wind Spd Definition
km/h
Visibility Definition
km
Stn Press Definition
kPa
Hmdx Definition


Wind Chill Definition


Weather Definition


00:00 -8.6 -10.3 88 0.0 23 7   102.46   -12 LegendNANA
01:00 -8.9 -11.0 85 0.0 26 10   102.53   -14 LegendNANA
02:00 -8.5 -10.6 85 0.0 26 10   102.58   -13 LegendNANA
03:00 -9.1 -11.2 85 0.0 26 9   102.63   -14 LegendNANA
04:00 -10.0 -11.9 86 0.0 26 7   102.68   -14 LegendNANA
05:00 -12.4 -13.5 92 0.0 26 5   102.71   -16 LegendNANA
06:00 -14.6 -15.8 90 0.0 27 5   102.76   -18 LegendNANA
07:00 -13.4 -14.9 89 0.0 27 6   102.81   -17 LegendNANA
08:00 -13.4 -15.3 85 0.0 25 5   102.88   -17 LegendNANA
09:00 -9.9 -12.0 84 0.0 26 6   102.95   -13 LegendNANA
10:00 -6.8 -10.6 75 0.0 25 7   102.90   -10 LegendNANA
11:00 -3.2 -8.3 68 0.0 23 14   102.82   -8 LegendNANA
12:00 0.2 -7.5 56 0.0 21 19   102.70     LegendNANA
13:00 0.8 -7.3 55 0.0 22 32   102.51     LegendNANA
14:00 2.1 -7.8 48 0.0 21 27   102.34     LegendNANA
15:00 3.1 -7.2 46 0.0 22 31   102.29     LegendNANA
16:00 3.6 -5.7 51 0.0 22 38   102.15     LegendNANA
17:00 3.7 -4.4 55 0.0 21 25   102.08     LegendNANA
18:00 3.1 -3.3 63 0.0 21 19   102.05     LegendNANA
19:00 3.1 -2.0 69 0.0 21 22   102.03     LegendNANA
20:00 2.8 -1.8 72 0.0 20 17   101.97     LegendNANA
21:00 2.5 -2.1 72 0.0 21 24   101.95     LegendNANA
22:00 2.7 -2.0 71 0.0 22 28   101.91     LegendNANA
23:00 2.8 -1.4 73 0.0 22 24   101.91     LegendNANA

Notes on Data Quality.

Legend

  • E = Estimated
  • M = Missing
  • NA = Not Available*
  • [empty] = Indicates an unobserved value
Date modified: